Regional Weather Roundup
Issued by NWS

Home | Current Version | Previous Version | Text Only | Print | Product List | Glossary On
Versions: 1 2 3 4 5 6 7 8 9 10 11 12 13 14 15 16 17 18 19 20 21 22 23 24 25 26 27 28 29 30 31 32 33 34 35 36 37 38 39 40 41 42 43 44 45 46 47 48 49 50
000
ASUS43 KDTX 201610
RWRMI
MICHIGAN HOURLY REGIONAL WEATHER ROUNDUP
NATIONAL WEATHER SERVICE DETROIT/PONTIAC MI
1200 PM EDT FRI OCT 20 2017

NOTE: "FAIR" INDICATES FEW OR NO CLOUDS BELOW 12,000 FEET WITH NO
SIGNIFICANT WEATHER AND/OR OBSTRUCTION TO VISIBILITY.

MIZ047>049-052>055-059>063-066>070-074>076-081>083-201700-
SOUTHEAST LOWER MICHIGAN

CITY           SKY/WX    TMP DP  RH WIND       PRES   REMARKS
ADRIAN         SUNNY     66  37  34 SW8       30.28F
ALMA           SUNNY     67  44  42 S9        30.20F
ANN ARBOR      SUNNY     64  36  35 SE9       30.26F
BAD AXE        SUNNY     68  39  34 S12       30.20F
CARO           SUNNY     70  47  43 S9        30.20F
DETROIT CITY   CLOUDY    63  42  46 S8        30.27F
DETROIT        MOSUNNY   64  40  41 S9        30.28F
FLINT          SUNNY     66  45  46 S10       30.23F
GROSSE ILE     SUNNY     62  46  55 S10       30.27F
HILLSDALE      SUNNY     66  37  34 S9        30.26F
HOWELL         SUNNY     64  41  41 S8        30.24F

CITY           SKY/WX    TMP DP  RH WIND       PRES   REMARKS
JACKSON        SUNNY     67  42  40 S9        30.25F
LAMBERTVILLE   SUNNY     68  35  29 S6        30.27F
LANSING        SUNNY     68  47  46 S9        30.23F
LAPEER         FAIR      67  43  41 SW12      30.23F
MASON          SUNNY     68  45  43 SW7       30.24F
MONROE         CLOUDY    66  32  28 S7        30.27F
MT. CLEMENS    MOSUNNY   65  39  38 S8        30.25F
PONTIAC        MOSUNNY   64  35  34 S10       30.25F
PORT HOPE        N/A     70  36  28 VRB6      30.18F
PORT HURON     CLOUDY    66  39  37 S9        30.26S
TRI CITIES     MOSUNNY   67  47  48 S9        30.20F
MIDLAND        FAIR      68  46  45 SW8       30.18F
TROY           SUNNY     63  36  36 S6        30.28F
SAGINAW HB     SUNNY     68  46  45 SW13      30.19F
$$
MIZ043>046-050>051-056>058-064>065-071>073-077>080-201700-
SOUTHWEST LOWER MICHIGAN

CITY           SKY/WX    TMP DP  RH WIND       PRES   REMARKS
BATTLE CREEK   SUNNY     67  50  54 S8        30.24S
BENTON HARBOR  SUNNY     70  51  51 S9        30.20F
BIG RAPIDS     SUNNY     69  46  43 SW7G18    30.16F
COLDWATER      SUNNY     67  43  41 SE6       30.25F
FREMONT        FAIR      68  50  53 S8        30.16F
HOLLAND        SUNNY     70  51  51 S12       30.19F
GRAND RAPIDS   MOSUNNY   70  51  51 S10       30.19F
IONIA          FAIR      70  48  44 SW10      30.20F
KALAMAZOO      SUNNY     66  50  56 S10       30.23F
LUDINGTON      SUNNY     67  53  59 S16G23    30.12F
MARSHALL       SUNNY     66  46  47 S7        30.24F
MOUNT PLEASANT SUNNY     71  47  41 SW8       30.17F
MUSKEGON       MOSUNNY   67  52  58 S12       30.17F
SOUTH HAVEN    SUNNY     72  50  46 S6        30.19F
$$
MIZ016>042-201700-
NORTHERN LOWER MICHIGAN

CITY           SKY/WX    TMP DP  RH WIND       PRES   REMARKS
ALPENA         CLOUDY    68  45  43 SW8G18    30.13F
BEAVER ISLAND  SUNNY     65  51  60 S15G24    30.06S
BELLAIRE       MOSUNNY   68  47  47 S7        30.10F
CADILLAC       SUNNY     69  47  44 SW12      30.14F
CHARLEVOIX     MOSUNNY   67  48  51 S12G18    30.11S
FRANKFORT      SUNNY     68  53  58 S14G22    30.10F
GAYLORD        CLOUDY    67  46  47 SW14      30.11F
GRAYLING       CLOUDY    67  45  44 S10       30.14F
HARBOR SPRINGS CLOUDY    67  47  48 SW8G16    30.08S
HOUGHTON LAKE  MOSUNNY   65  45  48 SW7       30.17F
MANISTEE       SUNNY     68  54  60 S7        30.11F
OSCODA         CLOUDY    66  42  41 SW13G20   30.16F
PELLSTON       MOSUNNY   70  48  45 S8        30.08F
ROGERS CITY    MOSUNNY   66  45  46 S7        30.10F
TRAVERSE CITY  SUNNY     70  49  47 VRB5      30.09F
$$
MIZ007>008-015-201700-
EASTERN UPPER MICHIGAN

CITY           SKY/WX    TMP DP  RH WIND       PRES   REMARKS
KINROSS        SUNNY     65  48  54 VRB7      30.06F
MACKINAC ISLAN SUNNY     66  45  46 SW6       30.06F
NEWBERRY       SUNNY     63  55  73 S16       30.02S
S. S. MARIE    SUNNY     65  49  56 S8        30.04F
MUNISING         N/A     65  49  56 SW10G20   29.98F
$$
MIZ004>006-011>014-085-201700-
CENTRAL UPPER MICHIGAN

CITY           SKY/WX    TMP DP  RH WIND       PRES   REMARKS
MANISTIQUE     SUNNY     60  52  75 S13G20    30.03F
ESCANABA       SUNNY     61  51  70 S12       30.02F
MENOMINEE      SUNNY     65  50  58 SW9       30.04F
SAWYER-GWINN   SUNNY     61  45  55 S13       29.99F
$$
MIZ001>003-009>011-084-201700-
WESTERN UPPER MICHIGAN

CITY           SKY/WX    TMP DP  RH WIND       PRES   REMARKS
IRON MOUNTAIN  SUNNY     63  44  50 S7        29.99F
HOUGHTON       SUNNY     63  46  54 S6        29.90F
COPPER HARBOR    N/A     64  46  52 SW9G16    29.89F
IRONWOOD       SUNNY     67  49  52 VRB6      29.90F
$$

ABBREVIATIONS USED IN REMARKS
   TC - TEMPERATURE IN CELSIUS
  WCI - WIND CHILL INDEX
   HX - HEAT INDEX
  VSB - VISIBILITY





USA.gov is the U.S. government's official web portal to all federal, state and local government web resources and services.